Погода в Горном

Россия / Саратовская область     51°45′40″N   48°32′30″E
темп.,
°C
ветер,
м/с
пор.,
м/с
влажн.,
%
обл.,
%
осадки,
мм/ч
давл.,
гПа
погр.,
м
26 июля, пн
пн2601:00+18ссв2347100 0.0 102254
04:00+17всв224092 0.0 102336
07:00+18в234051 0.0 1023124
10:00+21зюз113299 0.0 1024746
13:00+22ссз223261 0.0 1024637
16:00+25с442710 0.0 10222711
19:00+23ссз55325 0.0 1022851
22:00+18с22480 0.0 102313
27 июля, вт
вт2701:00+16сз11538 0.0 102211
04:00+15зсз22563 0.0 102211
07:00+18зсз23513 0.0 1022112
10:00+24сз34343 0.0 10211345
13:00+27сз562859 0.0 10202918
16:00+27ссз673148 0.0 10182738
19:00+26ссз563414 0.0 10181206
22:00+22ссз234625 0.0 101859
28 июля, ср
ср2801:00+18сз33618 0.0 101836
04:00+16ссз22690 0.0 101714
07:00+19с24634 0.0 1018159
10:00+25с4538100 0.0 10181147
13:00+26ссз24320 0.0 10171580
16:00+29ссз462987 0.0 10152820
19:00+24ссз254813 0.1 1015342
22:00+21зюз11571 0.1 101511
29 июля, чт
чт2901:00+20ю2259100 0.0 101511
04:00+19ююз456299 0.0 101473
07:00+21ююз4853100 0.0 1013219
10:00+27юз6837100 0.1 1012808
13:00+28юз5831100 0.1 1011852
16:00+21ю2866100 0.3 1011382
19:00+24зюз485731 0.6 1010529
22:00+19юз468495 2.9 100991
30 июля, пт
пт3001:00+18юз410870 0.9 1009178
04:00+19зюз48855 0.9 1009123
07:00+21з37767 0.0 1010199
10:00+27з46501 0.0 1010758
13:00+31зсз673526 0.0 10102579
16:00+32зсз583027 0.0 10093030
19:00+30ссз573667 0.0 1009667
22:00+23с22550 0.0 101117